Date String (YYYY-MM-DD hh:mm:ss) UTC,Instrument flags,Ambient pressure (hPa),Sample flow (lpm),Bypass flow (lpm),Sample temperature (°C),Ambient temperature (°C),ASC tube jacket temperature (°C),LED temperature (°C),Box temperature (°C),Sample RH (%),Span deviation,Mass concentration (μg/m³),Mass concentration (μg/m³),Mass concentration (μg/m³)
DateTimeUTC,F1_M11,P_M11,Q1_M11,Q2_M11,T1_M11,T2_M11,T3_M11,T4_M11,T5_M11,U1_M11,ZSPAN_M11,X0_M11,X2_M11,X1_M11
2022-01-22 02:00:00,,0832.7,4.99,0.00,22.2,21.6,00.0,31.2,24.0,18.9,-002.1,0008.57,0004.90,0004.53
2022-01-22 02:01:00,,0832.7,5.01,0.00,22.2,21.6,00.0,31.2,24.0,18.9,-002.2,0008.57,0004.92,0004.56
2022-01-22 02:02:00,,0832.7,5.00,0.00,22.2,21.6,00.0,31.2,24.0,18.9,-002.2,0008.58,0004.94,0004.59
2022-01-22 02:03:00,,0832.7,5.00,0.00,22.2,21.6,00.0,31.2,24.0,18.9,-002.1,0008.81,0004.98,0004.61
2022-01-22 02:04:00,,0832.7,5.00,0.00,22.2,21.6,00.0,31.2,24.0,18.8,-002.0,0009.06,0005.01,0004.64
2022-01-22 02:05:00,,0832.8,5.00,0.00,22.2,21.6,00.0,31.2,24.0,18.8,-002.1,0009.06,0005.01,0004.66
2022-01-22 02:06:00,,0832.8,5.00,0.00,22.2,21.6,00.0,31.2,24.0,18.8,-001.6,0008.85,0005.01,0004.68
2022-01-22 02:07:00,,0832.8,4.99,0.00,22.2,21.6,00.0,31.2,24.0,18.8,-001.5,0008.70,0005.05,0004.70
2022-01-22 02:08:00,,0832.7,5.02,0.00,22.3,21.6,00.0,31.2,24.0,18.7,-001.7,0009.24,0005.07,0004.72
2022-01-22 02:09:00,,0832.7,4.98,0.00,22.3,21.6,00.0,31.2,24.0,18.7,-001.5,0009.30,0005.09,0004.75
2022-01-22 02:10:00,,0832.7,5.01,0.00,22.3,21.6,00.0,31.2,24.0,18.7,-001.7,0009.39,0005.15,0004.79
2022-01-22 02:11:00,,0832.8,4.99,0.00,22.2,21.6,00.0,31.2,24.0,18.7,-002.0,0009.08,0005.22,0004.83
2022-01-22 02:12:00,,0832.7,5.00,0.00,22.2,21.6,00.0,31.2,24.0,18.7,-002.1,0009.10,0005.25,0004.86
2022-01-22 02:13:00,,0832.7,4.98,0.00,22.2,21.6,00.0,31.2,24.0,18.8,-002.0,0009.09,0005.27,0004.88
2022-01-22 02:14:00,,0832.7,5.01,0.00,22.2,21.6,00.0,31.2,24.0,18.8,-002.0,0008.99,0005.27,0004.88
2022-01-22 02:15:00,,0832.8,5.00,0.00,22.2,21.6,00.0,31.2,24.0,18.8,-001.9,0008.67,0005.27,0004.89
2022-01-22 02:16:00,,0832.7,5.02,0.00,22.2,21.6,00.0,31.2,24.0,18.8,-001.6,0008.84,0005.31,0004.92
2022-01-22 02:17:00,,0832.8,4.99,0.00,22.2,21.5,00.0,31.2,24.0,18.8,-001.9,0009.12,0005.36,0004.95
2022-01-22 02:18:00,,0832.8,5.01,0.00,22.2,21.5,00.0,31.2,24.0,18.8,-002.0,0009.17,0005.34,0004.95
2022-01-22 02:19:00,,0832.9,4.98,0.00,22.2,21.6,00.0,31.2,24.0,18.8,-002.2,0009.08,0005.39,0004.97
2022-01-22 02:20:00,,0832.8,5.00,0.00,22.2,21.6,00.0,31.1,24.0,18.8,-002.4,0009.29,0005.40,0004.99
2022-01-22 02:21:00,,0832.9,4.99,0.00,22.2,21.6,00.0,31.1,24.0,18.8,-002.0,0009.21,0005.37,0004.99
2022-01-22 02:22:00,,0832.9,5.02,0.00,22.2,21.6,00.0,31.1,24.0,18.8,-001.7,0009.17,0005.37,0005.02
2022-01-22 02:23:00,,0833.0,4.99,0.00,22.2,21.6,00.0,31.1,24.0,18.7,-001.9,0009.23,0005.38,0005.04
2022-01-22 02:24:00,,0833.1,5.01,0.00,22.2,21.5,00.0,31.1,23.9,18.7,-002.2,0009.37,0005.43,0005.08
2022-01-22 02:25:00,,0833.1,4.99,0.00,22.2,21.5,00.0,31.1,23.9,18.7,-002.4,0009.57,0005.49,0005.11
2022-01-22 02:26:00,,0833.0,5.01,0.00,22.2,21.5,00.0,31.1,23.9,18.7,-002.2,0009.63,0005.53,0005.16
2022-01-22 02:27:00,,0833.1,4.99,0.00,22.2,21.5,00.0,31.1,24.0,18.7,-001.8,0009.55,0005.54,0005.17
2022-01-22 02:28:00,,0833.1,5.01,0.00,22.2,21.5,00.0,31.1,23.9,18.7,-001.6,0009.29,0005.52,0005.17
2022-01-22 02:29:00,,0833.1,4.99,0.00,22.2,21.5,00.0,31.1,24.0,18.7,-001.4,0009.27,0005.57,0005.20
2022-01-22 02:30:00,,0833.0,5.00,0.00,22.2,21.5,00.0,31.1,24.0,18.7,-000.8,0009.61,0005.59,0005.22
2022-01-22 02:31:00,,0833.1,5.01,0.00,22.2,21.5,00.0,31.1,24.0,18.7,-000.6,0009.94,0005.59,0005.24
2022-01-22 02:32:00,,0833.0,5.00,0.00,22.2,21.5,00.0,31.1,24.0,18.7,-000.5,0010.01,0005.62,0005.27
2022-01-22 02:33:00,,0833.0,5.01,0.00,22.2,21.9,00.0,31.2,24.0,18.6,-000.6,0010.07,0005.63,0005.27
2022-01-22 02:34:00,,0833.1,5.00,0.00,22.4,22.7,00.0,31.2,24.3,18.5,-000.5,0010.01,0005.64,0005.29
2022-01-22 02:35:00,,0833.1,5.00,0.00,22.5,23.0,00.0,31.2,24.5,18.4,-000.6,0009.93,0005.63,0005.30
2022-01-22 02:36:00,,0833.1,5.00,0.00,22.5,22.9,00.0,31.3,24.5,18.3,-000.2,0010.02,0005.65,0005.32
2022-01-22 02:37:00,,0833.1,4.99,0.00,22.5,22.8,00.0,31.3,24.5,18.2,0000.1,0010.06,0005.67,0005.34
2022-01-22 02:38:00,,0833.1,5.02,0.00,22.6,22.6,00.0,31.3,24.5,18.2,-000.4,0010.69,0005.72,0005.37
2022-01-22 02:39:00,,0833.1,5.00,0.00,22.6,22.5,00.0,31.3,24.5,18.2,-000.8,0011.02,0005.78,0005.42
2022-01-22 02:40:00,,0833.1,4.99,0.00,22.6,22.4,00.0,31.3,24.5,18.2,-001.0,0011.13,0005.80,0005.46
2022-01-22 02:41:00,,0833.1,5.00,0.00,22.6,22.3,00.0,31.3,24.5,18.1,-001.0,0010.76,0005.84,0005.50
2022-01-22 02:42:00,,0833.1,4.99,0.00,22.6,22.2,00.0,31.4,24.5,18.1,-001.2,0010.02,0005.89,0005.55
2022-01-22 02:43:00,,0833.1,5.01,0.00,22.6,22.2,00.0,31.4,24.4,18.0,-001.2,0010.05,0005.95,0005.58
2022-01-22 02:44:00,,0833.1,5.00,0.00,22.6,22.2,00.0,31.4,24.4,18.0,-001.1,0010.64,0005.99,0005.62
2022-01-22 02:45:00,,0833.1,5.00,0.00,22.6,22.1,00.0,31.4,24.4,18.0,-001.1,0011.31,0006.04,0005.64
2022-01-22 02:46:00,,0833.1,5.01,0.00,22.6,22.1,00.0,31.4,24.4,18.0,-000.9,0012.12,0006.06,0005.67
2022-01-22 02:47:00,,0833.0,4.98,0.00,22.6,22.0,00.0,31.4,24.4,18.0,-001.1,0012.24,0006.10,0005.71
2022-01-22 02:48:00,,0833.0,5.01,0.00,22.6,22.0,00.0,31.4,24.4,18.0,-001.2,0012.18,0006.12,0005.73
2022-01-22 02:49:00,,0833.0,4.99,0.00,22.6,22.0,00.0,31.4,24.4,17.9,-001.0,0011.59,0006.09,0005.74
2022-01-22 02:50:00,,0833.0,5.00,0.00,22.6,22.0,00.0,31.4,24.3,17.9,-000.9,0011.39,0006.12,0005.76
2022-01-22 02:51:00,,0833.0,4.99,0.00,22.6,22.0,00.0,31.4,24.3,17.9,-000.8,0011.30,0006.13,0005.77
2022-01-22 02:52:00,,0833.0,4.98,0.00,22.6,22.0,00.0,31.4,24.3,17.8,-000.8,0011.19,0006.10,0005.76
2022-01-22 02:53:00,,0833.0,5.01,0.00,22.5,21.9,00.0,31.4,24.3,17.7,-000.8,0011.09,0006.05,0005.73
2022-01-22 02:54:00,,0833.0,4.99,0.00,22.5,21.9,00.0,31.4,24.3,17.7,-000.5,0011.19,0006.01,0005.71
2022-01-22 02:55:00,,0833.0,5.02,0.00,22.5,21.9,00.0,31.4,24.3,17.6,-000.0,0011.15,0005.96,0005.69
2022-01-22 02:56:00,,0833.0,4.98,0.00,22.5,21.9,00.0,31.4,24.3,17.5,0000.1,0010.57,0005.90,0005.66
2022-01-22 02:57:00,,0833.0,5.01,0.00,22.5,21.9,00.0,31.4,24.3,17.5,0000.1,0009.71,0005.87,0005.62
2022-01-22 02:58:00,,0833.1,4.98,0.00,22.5,21.9,00.0,31.4,24.3,17.4,0000.2,0009.42,0005.82,0005.58
2022-01-22 02:59:00,,0833.1,5.02,0.00,22.5,21.9,00.0,31.4,24.3,17.3,-000.0,0009.44,0005.79,0005.54
